Current weather by "City, St" or "zip code"  
 

Current Conditions: Columbus/West Point/Starkville, Golden Triangle Regional Airport, MS

Fair


72.0 F

Last Updated on Sep 18 2020, 9:56 am CDT
Humidity: 76%
Wind Speed: N 13.8 mph
Barometer 30.04 in
Dewpoint: 64.0 F
Visibility: 10.00 mi
Precip: --
Heat Index: NA
Wind Chill: NA
Current conditions at:

Columbus/West Point/Starkville, Golden Triangle Regional Airport, MS (KGTR)

Lat: 33.45 Lon: 88.58333

Local Radar Image active severe weather and emergency alerts image image weather storm and storm spotter reports image weather observation monitoring service image
Local
Radar
Active
Alerts
Storm Reports Obs
Monitoring

Sign-up For Email & Text Message Weather Alert Notification Services



Advertise Here

Observation History for Columbus/West Point/Starkville, Golden Triangle Regional Airport, MS


Time Wind
(mph)
Vis
(mi)
Weather Precip (in) Temperature (F) Relative
Humidity
Wind
Chill
(F)
Heat
Index
(F)
Pressure
Air Dwpt altimeter
(in)
sea level
(mb)
Rmks
9:56 am CDT N 13.8 10.00 Fair -- 72.0 64.0 76% NA NA 30.04 1017.7
8:56 am CDT N 8.1 10.00 Fair -- 66.0 63.0 90% NA NA 30.03 1017.3
7:56 am CDT N 8.1 10.00 Fair -- 64.0 62.1 93% NA NA 30.01 1016.8
6:56 am CDT NW 6.9 10.00 Fair -- 61.0 60.1 97% 60 NA 29.99 1016.1
5:56 am CDT NW 5.8 10.00 Fair -- 61.0 61.0 100% 61 NA 29.97 1015.5
4:56 am CDT NW 5.8 10.00 Fair -- 62.0 61.0 96% 62 NA 29.96 1015.0
3:56 am CDT NW 4.6 10.00 Fair -- 63.0 61.0 93% 64 NA 29.94 1014.4
2:56 am CDT N 5.8 10.00 Fair -- 64.0 61.0 90% NA NA 29.94 1014.2
1:56 am CDT NW 4.6 10.00 Fair -- 65.0 61.0 87% NA NA 29.94 1014.3
12:56 am CDT NW 3.5 10.00 Fair -- 66.0 61.0 84% NA NA 29.94 1014.4
11:56 pm CDT NW 5.8 10.00 Fair -- 70.0 61.0 73% NA NA 29.95 1014.8
10:56 pm CDT N 6.9 10.00 Fair -- 71.0 61.0 71% NA NA 29.93 1014.1
9:56 pm CDT N 9.2 10.00 Fair -- 74.0 61.0 64% NA NA 29.92 1013.7
8:56 pm CDT N 11.5 10.00 Fair -- 76.0 68.0 77% NA NA 29.91 1013.2
7:56 pm CDT NW 6.9 10.00 Fair -- 77.0 71.1 82% NA NA 29.89 1012.7
6:56 pm CDT N 5.8 10.00 A Few Clouds -- 80.0 70.0 71% NA 83 29.88 1012.1
5:56 pm CDT N 8.1 10.00 Mostly Cloudy -- 84.0 70.0 63% NA 88 29.86 1011.7
4:56 pm CDT N 12.7 10.00 Fair -- 85.0 70.0 61% NA 90 29.85 1011.2
3:56 pm CDT N 16.1 G 21.9 10.00 Overcast -- 90.0 71.1 54% NA 96 29.84 1011.0
1:56 pm CDT N 16.1 G 23.0 10.00 Partly Cloudy -- 89.0 70.0 53% NA 94 29.86 1011.7
12:56 pm CDT N 15.0 G 25.3 10.00 Fair -- 88.0 70.0 55% NA 93 29.87 1012.1
11:56 am CDT NW 9.2 G 23.0 10.00 Fair -- 87.0 71.1 59% NA 93 29.89 1012.7
10:56 am CDT NW 11.5 G 19.6 10.00 A Few Clouds -- 83.0 71.1 67% NA 88 29.90 1013.0

Regional Weather Observation


Monroe County Airport, MS (KM40)

Fair
72.0 F

Columbus Air Force Base, MS (KCBM)

Fair
72.0 F

Columbus/West Point/Starkville, Golden Triangle Regional Airport, MS (KGTR)

Fair
72.0 F

Tupelo, Tupelo Regional Airport, MS (KTUP)

Fair
73.0 F

Oxford, University-Oxford Airport, MS (KUOX)

Fair
70.0 F

Tuscaloosa Regional Airport, AL (KTCL)

Fair
77.0 F